TimeEDT,TemperatureF,Dew PointF,Humidity,Sea Level PressureIn,VisibilityMPH,Wind Direction,Wind SpeedMPH,Gust SpeedMPH,PrecipitationIn,Events,Conditions,WindDirDegrees,DateUTC
12:15 AM,76.1,72.1,87,29.57,7.0,SW,6.9,-,N/A,,Scattered Clouds,230,2013-06-28 04:15:00
12:35 AM,75.7,71.8,87,29.57,10.0,SW,4.6,-,N/A,,Clear,220,2013-06-28 04:35:00
12:55 AM,75.6,71.8,88,29.57,10.0,SW,5.8,-,N/A,,Clear,230,2013-06-28 04:55:00
1:15 AM,75.7,72.1,89,29.57,10.0,WSW,6.9,-,N/A,,Scattered Clouds,240,2013-06-28 05:15:00
1:35 AM,75.7,72.0,88,29.56,10.0,SW,6.9,-,N/A,,Clear,230,2013-06-28 05:35:00
1:55 AM,76.1,72.0,87,29.55,10.0,South,4.6,-,N/A,,Clear,190,2013-06-28 05:55:00
2:35 AM,75.7,71.8,87,29.55,10.0,South,4.6,-,N/A,,Clear,190,2013-06-28 06:35:00
2:55 AM,75.7,71.6,87,29.55,10.0,SSW,4.6,-,N/A,,Scattered Clouds,200,2013-06-28 06:55:00
3:15 AM,75.7,71.6,87,29.54,10.0,SSW,5.8,-,N/A,,Scattered Clouds,200,2013-06-28 07:15:00
3:35 AM,75.4,71.1,86,29.54,10.0,SSW,3.5,-,N/A,,Scattered Clouds,200,2013-06-28 07:35:00
3:55 AM,75.2,71.1,87,29.54,10.0,SSW,3.5,-,N/A,,Scattered Clouds,210,2013-06-28 07:55:00
4:15 AM,75.2,71.1,87,29.54,10.0,SSW,3.5,-,N/A,,Scattered Clouds,200,2013-06-28 08:15:00
4:35 AM,74.7,71.1,88,29.53,10.0,SSW,4.6,-,N/A,,Scattered Clouds,200,2013-06-28 08:35:00
4:55 AM,74.5,71.1,89,29.53,10.0,SSW,5.8,-,N/A,,Clear,200,2013-06-28 08:55:00
5:15 AM,74.3,71.1,90,29.53,10.0,SSW,3.5,-,N/A,,Clear,210,2013-06-28 09:15:00
5:35 AM,74.3,71.1,90,29.54,10.0,SW,3.5,-,N/A,,Scattered Clouds,230,2013-06-28 09:35:00
5:55 AM,74.5,71.1,89,29.54,10.0,Calm,Calm,-,N/A,,Scattered Clouds,0,2013-06-28 09:55:00
6:15 AM,74.7,71.2,89,29.54,10.0,Calm,Calm,-,N/A,,Scattered Clouds,0,2013-06-28 10:15:00
6:35 AM,74.7,71.1,88,29.55,10.0,Calm,Calm,-,N/A,,Scattered Clouds,0,2013-06-28 10:35:00
6:55 AM,75.4,71.4,87,29.55,10.0,SSW,3.5,-,N/A,,Mostly Cloudy,210,2013-06-28 10:55:00
7:15 AM,76.5,71.6,85,29.55,10.0,Calm,Calm,-,N/A,,Mostly Cloudy,0,2013-06-28 11:15:00
7:35 AM,76.6,71.4,84,29.55,10.0,WSW,4.6,-,N/A,,Overcast,240,2013-06-28 11:35:00
7:55 AM,77.0,71.1,82,29.55,10.0,WSW,6.9,-,N/A,,Mostly Cloudy,250,2013-06-28 11:55:00
8:55 AM,78.8,69.8,74,29.54,10.0,WSW,5.8,-,N/A,,Mostly Cloudy,240,2013-06-28 12:55:00
9:15 AM,79.0,70.0,74,29.53,10.0,WSW,5.8,-,N/A,,Overcast,250,2013-06-28 13:15:00
9:35 AM,79.9,70.2,72,29.52,10.0,West,5.8,-,N/A,,Scattered Clouds,260,2013-06-28 13:35:00
9:55 AM,79.0,69.6,73,29.52,10.0,West,11.5,-,N/A,,Mostly Cloudy,270,2013-06-28 13:55:00
10:15 AM,79.3,69.4,72,29.52,10.0,West,9.2,-,N/A,,Mostly Cloudy,260,2013-06-28 14:15:00
10:35 AM,79.7,69.6,71,29.52,10.0,West,8.1,-,N/A,,Mostly Cloudy,260,2013-06-28 14:35:00
10:55 AM,80.1,69.1,69,29.52,10.0,West,9.2,-,N/A,,Mostly Cloudy,260,2013-06-28 14:55:00
11:15 AM,81.3,69.4,67,29.53,10.0,West,10.4,-,N/A,,Scattered Clouds,260,2013-06-28 15:15:00
11:35 AM,81.1,69.1,67,29.53,10.0,West,10.4,-,N/A,,Scattered Clouds,270,2013-06-28 15:35:00
11:55 AM,82.9,67.5,59,29.54,10.0,West,9.2,-,N/A,,Mostly Cloudy,260,2013-06-28 15:55:00
12:15 PM,82.6,67.8,61,29.54,10.0,West,10.4,16.1,N/A,,Overcast,270,2013-06-28 16:15:00
12:35 PM,82.8,68.0,61,29.53,10.0,West,9.2,-,N/A,,Mostly Cloudy,270,2013-06-28 16:35:00
12:55 PM,83.5,67.5,58,29.53,10.0,WSW,3.5,-,N/A,,Scattered Clouds,250,2013-06-28 16:55:00
1:15 PM,83.7,67.5,58,29.53,10.0,WSW,9.2,-,N/A,,Scattered Clouds,250,2013-06-28 17:15:00
1:35 PM,85.6,66.7,53,29.53,10.0,WSW,5.8,-,N/A,,Scattered Clouds,240,2013-06-28 17:35:00
1:55 PM,86.0,67.5,54,29.52,10.0,WSW,6.9,-,N/A,,Scattered Clouds,240,2013-06-28 17:55:00
2:15 PM,86.5,67.3,52,29.52,10.0,WNW,5.8,-,N/A,,Mostly Cloudy,300,2013-06-28 18:15:00
2:35 PM,85.5,66.0,52,29.51,10.0,West,10.4,17.3,N/A,,Mostly Cloudy,260,2013-06-28 18:35:00
2:55 PM,87.3,66.0,49,29.51,10.0,WSW,9.2,16.1,N/A,,Scattered Clouds,240,2013-06-28 18:55:00
3:15 PM,88.0,66.4,49,29.51,10.0,West,10.4,-,N/A,,Scattered Clouds,270,2013-06-28 19:15:00
3:35 PM,87.1,66.6,50,29.50,10.0,WSW,5.8,-,N/A,,Scattered Clouds,250,2013-06-28 19:35:00
3:55 PM,88.2,66.0,48,29.49,10.0,WSW,3.5,-,N/A,,Scattered Clouds,240,2013-06-28 19:55:00
4:15 PM,88.9,63.7,43,29.48,10.0,WSW,9.2,-,N/A,,Scattered Clouds,250,2013-06-28 20:15:00
4:35 PM,86.9,66.7,51,29.48,10.0,South,6.9,-,N/A,,Scattered Clouds,180,2013-06-28 20:35:00
4:55 PM,86.5,66.9,52,29.49,10.0,South,6.9,-,N/A,,Scattered Clouds,190,2013-06-28 20:55:00
5:15 PM,86.0,67.6,54,29.49,10.0,WSW,5.8,-,N/A,,Clear,240,2013-06-28 21:15:00
5:35 PM,85.5,67.5,55,29.48,10.0,SSW,3.5,-,N/A,,Clear,210,2013-06-28 21:35:00
5:55 PM,85.1,67.8,56,29.48,10.0,Calm,Calm,-,N/A,,Clear,0,2013-06-28 21:55:00
6:15 PM,85.1,67.8,56,29.49,10.0,South,4.6,-,N/A,,Clear,190,2013-06-28 22:15:00
6:35 PM,86.5,67.8,53,29.49,10.0,Calm,Calm,-,N/A,,Clear,0,2013-06-28 22:35:00
6:55 PM,85.6,67.6,55,29.49,10.0,South,4.6,-,N/A,,Clear,180,2013-06-28 22:55:00
7:15 PM,84.4,67.6,57,29.48,10.0,SSW,3.5,-,N/A,,Clear,200,2013-06-28 23:15:00
7:35 PM,83.8,68.5,60,29.49,10.0,South,4.6,-,N/A,Rain,Light Rain,180,2013-06-28 23:35:00
7:55 PM,81.0,69.6,68,29.50,10.0,SW,3.5,-,N/A,Rain,Light Rain,230,2013-06-28 23:55:00
8:15 PM,79.7,68.2,68,29.49,10.0,SW,3.5,-,N/A,,Light Drizzle,230,2013-06-29 00:15:00
8:35 PM,79.3,65.7,63,29.52,10.0,SW,8.1,-,N/A,,Clear,230,2013-06-29 00:35:00
8:55 PM,78.3,65.8,65,29.52,10.0,WSW,5.8,16.1,N/A,,Clear,240,2013-06-29 00:55:00
9:15 PM,77.2,65.8,68,29.52,10.0,West,10.4,-,N/A,,Scattered Clouds,270,2013-06-29 01:15:00
9:35 PM,76.8,66.2,70,29.52,10.0,SW,3.5,-,N/A,,Mostly Cloudy,220,2013-06-29 01:35:00
9:55 PM,76.3,66.4,71,29.53,10.0,WSW,9.2,-,N/A,,Mostly Cloudy,250,2013-06-29 01:55:00
10:15 PM,75.7,67.1,74,29.54,10.0,West,10.4,18.4,N/A,,Scattered Clouds,270,2013-06-29 02:15:00
10:35 PM,75.4,66.6,74,29.54,10.0,West,9.2,-,N/A,,Clear,260,2013-06-29 02:35:00
10:55 PM,75.4,65.8,72,29.53,10.0,WSW,8.1,-,N/A,,Clear,240,2013-06-29 02:55:00
11:15 PM,75.6,65.5,71,29.52,10.0,WSW,5.8,-,N/A,,Clear,250,2013-06-29 03:15:00
11:35 PM,75.7,65.3,70,29.52,10.0,West,6.9,-,N/A,,Clear,260,2013-06-29 03:35:00
11:55 PM,76.1,64.8,68,29.52,10.0,WSW,5.8,-,N/A,,Clear,240,2013-06-29 03:55:00